User: anonymous   Login
Location: Beaurecueil
(43.5122°N, 5.5450°E)
Time: 02:00:38
(UTC+00:00)
Language:

Cosmos 2151 Rocket - Orbit

View from above orbital plane
View from above orbital plane
View from above satellite
View from above satellite

Ground track
Ground track

The orbit data is extracted from the following two-line orbital elements,

1 21423U 91042B   21138.30668538  .00000088  00000-0  86228-5 0  9999
2 21423  82.4957  63.9398 0016246 240.0067 119.9534 14.79827312593187
Epoch (UTC): 18 May 2021 07:21:37
Eccentricity: 0.0016246
inclination: 82.4957°
perigee height: 618 km
apogee height: 641 km
right ascension of ascending node: 63.9398°
argument of perigee: 240.0067°
revolutions per day: 14.79827312
mean anomaly at epoch: 119.9534°
orbit number at epoch: 59318

The dashed part of the orbit path shows where the satellite is in the earth's shadow,  

DLR